TimeMDT,TemperatureF,Dew PointF,Humidity,Sea Level PressureIn,VisibilityMPH,Wind Direction,Wind SpeedMPH,Gust SpeedMPH,PrecipitationIn,Events,Conditions,WindDirDegrees,DateUTC
12:53 AM,57.9,30.0,35,29.86,10.0,NW,11.5,-,N/A,,Mostly Cloudy,320,2013-05-08 06:53:00
1:53 AM,57.9,30.0,35,29.86,10.0,WNW,11.5,-,N/A,,Overcast,300,2013-05-08 07:53:00
2:53 AM,53.1,30.0,41,29.87,10.0,WNW,10.4,-,N/A,,Partly Cloudy,300,2013-05-08 08:53:00
3:53 AM,52.0,30.0,43,29.88,10.0,WNW,10.4,-,N/A,,Scattered Clouds,300,2013-05-08 09:53:00
4:53 AM,50.0,30.9,48,29.90,10.0,WNW,10.4,-,N/A,,Mostly Cloudy,290,2013-05-08 10:53:00
5:53 AM,51.1,30.9,46,29.91,10.0,NW,11.5,26.5,N/A,,Scattered Clouds,320,2013-05-08 11:53:00
6:53 AM,50.0,34.0,54,29.95,10.0,NW,16.1,27.6,N/A,,Mostly Cloudy,320,2013-05-08 12:53:00
7:53 AM,51.1,37.0,59,29.99,10.0,North,13.8,25.3,N/A,,Mostly Cloudy,350,2013-05-08 13:53:00
8:53 AM,54.0,37.9,55,29.99,10.0,NNW,19.6,27.6,N/A,,Mostly Cloudy,340,2013-05-08 14:53:00
9:53 AM,57.9,37.9,47,30.00,10.0,North,20.7,26.5,N/A,,Clear,350,2013-05-08 15:53:00
10:53 AM,60.1,37.9,44,30.01,10.0,North,20.7,26.5,N/A,,Clear,350,2013-05-08 16:53:00
11:53 AM,62.1,37.0,39,30.02,10.0,North,21.9,26.5,N/A,,Clear,350,2013-05-08 17:53:00
12:53 PM,63.0,37.0,38,30.01,10.0,North,21.9,27.6,N/A,,Clear,360,2013-05-08 18:53:00
1:53 PM,66.0,36.0,33,30.01,10.0,North,19.6,25.3,N/A,,Clear,350,2013-05-08 19:53:00
2:53 PM,66.0,35.1,32,30.02,10.0,NNW,18.4,33.4,N/A,,Partly Cloudy,340,2013-05-08 20:53:00
3:53 PM,66.0,36.0,33,30.02,10.0,North,15.0,26.5,N/A,,Scattered Clouds,360,2013-05-08 21:53:00
4:53 PM,66.9,34.0,30,30.02,10.0,NNE,15.0,24.2,N/A,,Mostly Cloudy,20,2013-05-08 22:53:00
5:53 PM,62.1,33.1,34,30.04,10.0,North,9.2,23.0,N/A,,Mostly Cloudy,360,2013-05-08 23:53:00
6:53 PM,64.0,34.0,33,30.04,10.0,North,9.2,-,N/A,,Clear,360,2013-05-09 00:53:00
7:53 PM,60.1,35.1,39,30.05,10.0,NNW,10.4,-,N/A,,Mostly Cloudy,330,2013-05-09 01:53:00
8:53 PM,57.0,35.1,44,30.07,10.0,NW,8.1,-,N/A,,Overcast,310,2013-05-09 02:53:00
9:53 PM,55.0,34.0,45,30.08,10.0,NW,6.9,-,N/A,,Mostly Cloudy,320,2013-05-09 03:53:00
10:53 PM,51.1,34.0,52,30.09,10.0,West,9.2,-,N/A,,Clear,280,2013-05-09 04:53:00